Welcome to the New NWS' Forecast!
Most changes are behind the scenes, but click here for differences you might notice.
Latest weather observations around

Joplin, Joplin Regional Airport (KJLN)

Using International System of Units (Switch to English Units)
Date/ Time (CST) Wind (kph) Vis. (km) Weather Sky Cond. Temp (°C) Rel. Humidity Wind Chill (°C) Heat Index (°C) Pressure Precip. (cm)
Air Dwpt 6 hour Altimeter (hPa) Sea level (hPa) 1 hr 3 hr 6 hr
Max Min
Nov 21 12:53 NE 21 16.09 Clear CLR 14 2     45%     1016.9 1016.8      
Nov 21 11:53 NNW 15 16.09 Clear CLR 12 3     55%     1017.3 1017      
Nov 21 10:53 WNW 9 16.09 Clear CLR 11 4     63%     1016.6 1016.3      
Nov 21 09:53 W 13 16.09 Clear CLR 11 3     61%     1015.2 1015      
Nov 21 08:53 WSW 11 16.09 Clear CLR 10 3     61% 8   1013.6 1013.3      
Nov 21 07:53 SW 8 16.09 Clear CLR 9 2     63% 8   1011.9 1011.6      
Nov 21 06:53 S 11 16.09 Clear CLR 7 1     65% 5   1010.8 1010.7      
Nov 21 05:53 SSW 9 16.09 Clear CLR 7 1     63% 5   1010.2 1010.1      
Nov 21 04:53 S 15 16.09 Clear CLR 7 1     65% 5   1009.8 1009.5      
Nov 21 03:53 SSW 17 16.09 Clear CLR 9 1     58% 6   1009.8 1009.5      
Nov 21 02:53 SSW 21 16.09 Clear CLR 10 1     52% 7   1010.2 1009.7      
Nov 21 01:53 SSW 24 16.09 Clear CLR 10 1     52% 7   1010.2 1009.7      
Nov 21 00:53 SSW 24 16.09 Clear CLR 10 1     52% 7   1010.5 1010.1      
Nov 20 23:53 S 21 16.09 Clear CLR 10 1     52% 7   1011.2 1011      
Nov 20 22:53 SSW 22 16.09 Clear CLR 11 0     46%     1012.2 1012      
Nov 20 21:53 SSW 22 16.09 Clear CLR 12 0     45%     1012.2 1011.9      
Nov 20 20:53 SSW 24 16.09 Clear CLR 12 -1     41%     1011.9 1011.7      
Nov 20 19:53   16.09 Clear CLR 12 -1     40%     1011.5 1011.4      
Nov 20 18:53 S 22 16.09 Clear CLR 12 -2     38%     1012.2 1012      
Nov 20 17:53 SSW 26 16.09 Clear CLR 13 -2     37%     1012.2 1012.2      
Nov 20 16:53 S 17 16.09 Clear CLR 13 -2     35%     1011.9 1011.5      
Nov 20 15:53 SSW 35 16.09 Clear and Windy CLR 16 -2     29%     1012.2 1011.9      
Nov 20 14:53 SSW 33 16.09 Clear and Windy CLR 16 -2     31%     1012.5 1012.3      
Nov 20 13:53 S 33 16.09 Clear and Windy CLR 16 -2     28%     1013.2 1013.1      
Nov 20 12:53   16.09 Clear CLR 16 -2     29%     1014.2 1014.1      
Nov 20 11:53   16.09 Clear CLR 15 -1     33%     1015.6 1015.4      
Nov 20 10:53 SSW 37 16.09 Clear and Windy CLR 13 -1     37%     1016.9 1016.9      
Nov 20 09:53 SSW 32 16.09 Clear and Windy CLR 12 -1     41%     1017.6 1017.7      
Nov 20 08:53   16.09 Clear CLR 10 -2     44%     1018.3 1018.5      
Nov 20 07:53   16.09 Clear CLR 8 -2     49%     1019 1019.2      
Nov 20 06:53 SSW 26 16.09 Clear CLR 7 -3     49% 3   1019.3 1019.4      
Nov 20 05:53 SSW 24 16.09 Clear CLR 7 -2     53% 3   1019 1019      
Nov 20 04:53 SSW 24 16.09 Clear CLR 7 -2     51% 3   1019 1019      
Nov 20 03:53 S 26 16.09 Clear CLR 7 -2     51% 3   1019.3 1019.4      
Nov 20 02:53 S 22 16.09 Clear CLR 7 -2     51% 4   1020 1020.1      
Nov 20 01:53 S 22 16.09 Clear CLR 7 -2     53% 3   1020.3 1020.2      
Nov 20 00:53 S 17 16.09 Clear CLR 6 -2     59% 2   1020.7 1020.6      
Nov 19 23:53 S 17 16.09 Clear CLR 6 -2     59% 2   1020.7 1020.9      
Nov 19 22:53 S 18 16.09 Clear CLR 5 -2     62% 1   1021.3 1021.4      
Nov 19 21:53 S 13 16.09 Clear CLR 4 -1     67% 1   1021.7 1021.9      
Nov 19 20:53 S 9 16.09 Clear CLR 4 -1     67% 2   1021.7 1022.1      
Nov 19 19:53 S 11 16.09 Clear CLR 4 -1     67% 2   1021.7 1022.4      
Nov 19 18:53 S 11 16.09 Clear CLR 5 -1     65% 2   1022.4 1022.7      
Nov 19 17:53 S 9 16.09 Clear CLR 6 -1     60% 4   1022.4 1022.9      
Nov 19 16:53 SW 13 16.09 Clear CLR 9 -2     46% 7   1022.4 1022.8      
Nov 19 15:53 SW 13 16.09 Clear CLR 11 -2     39%     1023 1023.2      
Nov 19 14:53 W 15 16.09 Clear CLR 11 -2     41%     1023.7 1024      
Nov 19 13:53 W 11 16.09 Clear CLR 11 -2     41%     1024.1 1024.4      
Nov 19 12:53 Calm 16.09 Clear CLR 9 -3     42%     1025.1 1025.3      
Nov 19 11:53 Calm 16.09 Clear CLR 8 -3     45%     1026.1 1026.4      
Nov 19 10:53 N 9 16.09 Clear CLR 7 -3     49% 5   1027.1 1027.5      
Nov 19 09:53 N 11 16.09 Clear CLR 6 -2     59% 3   1027.1 1027.5      
Nov 19 08:53 Calm 16.09 Clear CLR 3 -1     76%     1027.1 1027.6      
Nov 19 07:53 Calm 16.09 Clear CLR -1 -2     96%     1026.4 1027.1      
Nov 19 06:53 Calm 16.09 Clear CLR -1 -2     92%     1026.1 1026.4      
Nov 19 05:53 Calm 16.09 Clear CLR 1 -1     88%     1025.4 1025.8      
Nov 19 04:53 WNW 5 16.09 Clear CLR 1 -2     85% -1   1025.1 1025.3      
Nov 19 03:53 Calm 16.09 Clear CLR 1 -2     85%     1024.4 1024.9      
Nov 19 02:53 Calm 16.09 Clear CLR 2 -1     82%     1024.1 1024.5      
Nov 19 01:53 Calm 16.09 Clear CLR 2 -1     79%     1023.7 1024.1      
Nov 19 00:53 WNW 8 16.09 Clear CLR 2 -1     79% 0   1024.1 1024.3      
Nov 18 23:53 NW 11 16.09 Clear CLR 3 -1     78% 0   1023.7 1024.1      
Nov 18 22:53 NW 13 16.09 Clear CLR 4 0     76% 1   1023.4 1023.7      
Nov 18 21:53 NW 15 16.09 Clear CLR 4 1     76% 1   1023 1023.2      
Nov 18 20:53 NW 13 16.09 Clear CLR 4 1     79% 1   1022.4 1022.4      
Nov 18 19:53 WNW 11 16.09 Clear CLR 5 2     79% 2   1021.3 1021.5      
Nov 18 18:53 NW 11 16.09 Clear CLR 6 2     73% 4   1020.7 1020.4      
Nov 18 17:53 WNW 15 16.09 Clear CLR 7 3     76% 4   1019.7 1019.5     0
Nov 18 16:53 NW 17 16.09 Clear CLR 9 2     63% 6   1018.6 1018      
Nov 18 15:53 NNW 22 16.09 Clear CLR 9 1     54% 6   1017.6 1017.1      
Nov 18 14:53 NW 24 16.09 Cloudy OVC100 8 2     63% 5   1016.3 1015.8   0  
Nov 18 13:53 NW 35 16.09 Cloudy and Windy OVC070 8 3     71% 3   1015.9 1015.4 0    
Nov 18 12:53   9.66 Light Rain and Fog/Mist BKN012 BKN024 OVC035 7 6     93%     1014.9 1014.4 0    
Jun 12 01:53 S 15 16.09 Clear CLR 23 18     76%   23 1013.2 1011.9      
Jun 11 21:53 S 17 16.09 Clear CLR 26 18     62%   26 1012.5 1011.3      
Jun 11 11:53   16.09 Partly Cloudy SCT032 29 22     65%   32 1013.9 1012.6      
Jun 11 10:53   16.09 Clear CLR 28 21     65%   31 1013.6 1012.1      
Jun 10 19:53 S 24 16.09 Clear CLR 27 19     62%   29 1010.2 1008.9      
Jun 10 17:53   16.09 Clear CLR 29 20     57%   31 1009.8 1008.8      
Jun 10 11:53   16.09 Clear CLR 28 19     60%   29 1012.5 1011.3      
Jun 09 14:53 S 21 16.09 Partly Cloudy SCT055 27 16     52%   27 1012.9 1012.1      
Jun 09 00:53 SE 5 16.09 Clear CLR 16 13     83%     1013.9 1013      
Jun 08 23:53 S 5 16.09 Clear   17 13     80%     1013.9 1013.1      
Jun 08 12:53 WNW 8 16.09 Clear CLR 26 12     41%   26 1017.6 1016.8      
Jun 08 06:53 Calm 16.09 Clear CLR 13 12     90%     1018 1017.4      
Jun 07 21:53 Calm 16.09 Clear CLR 18 13     75%     1017.6 1016.7      
Jun 07 14:53 NNE 15 16.09 Clear CLR 27 11     37%   27 1018 1017      
Jun 07 11:53 E 15 16.09 Mostly Clear FEW060 26 9     35%   26 1019 1018.2      
Jun 06 11:53 N 8 16.09 Clear CLR 28 18     55%   29 1014.6 1013.4      
Jun 06 10:53 N 8 16.09 Clear CLR 26 19     65%   26 1014.6 1013.3      
Notice The following observation data may not be complete
Jun 06 04:02   3.22 Fog/Mist CLR          %              
Jun 05 19:53 Calm 16.09 Mostly Cloudy BKN075 29 21     63%   31 1010.2 1008.9